Regional Weather Roundup
Issued by NWS

Home | Current Version | Previous Version | Text Only | Print | Product List | Glossary On
Versions: 1 2 3 4 5 6 7 8 9 10 11 12 13 14 15 16 17 18 19 20 21 22 23 24 25 26 27 28 29 30 31 32 33 34 35 36 37 38 39 40 41 42 43 44 45 46 47 48 49 50
000
ASUS46 KLOX 192012
RWRCA

SOUTHERN CALIFORNIA WEATHER ROUNDUP
NATIONAL WEATHER SERVICE OXNARD CALIFORNIA
100 PM PDT FRI SEP 19 2014

NOTE: "FAIR" INDICATES FEW OR NO CLOUDS BELOW 12,000 FEET WITH NO
SIGNIFICANT WEATHER AND/OR OBSTRUCTIONS TO VISIBILITY.

  -  STATIONS PRECEEDED BY AN ASTERISK (*) ARE NOT NWS OR FAA
     STATIONS AND ARE NOT SUBJECT TO NWS AND FAA QUALITY CONTROL.

CAZ041-042-087-192100-
LA AND ORANGE COUNTY COASTAL AREAS


CITY           SKY/WX    TMP DP  RH WIND       PRES   REMARKS
L.A. DOWNTOWN  PTSUNNY   80  60  50 VRB3      29.87F
L.A. AIRPORT   MOSUNNY   75  62  64 W14       29.89F
LONG BEACH     SUNNY     77  61  57 S10       29.88F

CITY           SKY/WX    TMP DP  RH WIND       PRES   REMARKS
AVALON           N/A     73 N/A N/A S6          N/A
FULLERTON      SUNNY     81  60  48 SW9       29.86F
*GETTY CENTER    N/A    N/A N/A N/A S9G15       N/A
HAWTHORNE      SUNNY     79  62  56 W13       29.88F
*LEO CARRILLO    N/A     76  61  59 E3          N/A
*LOS ALAMITOS  SUNNY     78  61  56 SW10      29.88F
*REDONDO BEACH   N/A     77  62  59 W2        29.87F
SANTA ANA      MOSUNNY   80  59  48 SW12G17   29.88F
STA MONICA APT SUNNY     76  60  57 SW12      29.89F
*STA MON PIER    N/A     69  64  82 S6        29.88F
TORRANCE       MOSUNNY   81  61  50 SE8       29.88
*UCLA            N/A     75  61  60 SW7       29.85F

$$

CAZ547-548-048-192100-
LA COUNTY VALLEYS AND INLAND EMPIRE


CITY           SKY/WX    TMP DP  RH WIND       PRES   REMARKS
BURBANK        MOSUNNY   79  58  48 SE9G17    29.88F
VAN NUYS       MOSUNNY   78  58  49 SE6       29.88F

CITY           SKY/WX    TMP DP  RH WIND       PRES   REMARKS
CORONA AIRPORT CLEAR     80  61  52 SW5       29.88F
*CHATSWORTH      N/A     78  62  58 E7        29.84F
CHINO          MOSUNNY   81  59  47 VRB5      29.89F
*CLAREMONT       N/A     83  58  42 NW3         N/A
MARCH AFB      SUNNY     79  58  48 VRB2      29.90F
*NORTHRIDGE      N/A     79  57  47 E3G9        N/A
ONTARIO        MOSUNNY   79  58  48 VRB7      29.88F
*PASADENA        N/A     79  61  53 E5          N/A
POMONA         MOSUNNY   77  57  50 VRB5      29.92
RIVERSIDE      SUNNY     79  59  50 VRB5      29.88F
SAN BERNARDINO MOSUNNY   79  55  44 SW6       29.89F
*SAN GABRIEL     N/A     80  57  46 CALM      29.83F
*SAN RAFAEL HI   N/A     82  70  67 S6          N/A
*SAUGUS          N/A     80  58  46 S10         N/A
*WHITEMAN AP   MOSUNNY   77  59  53 E7        29.92
*WHITTIER HILL   N/A     79  64  59 SW5         N/A
*WOODLAND HILL   N/A     81  59  47 E3          N/A

$$

CAZ054-055-192100-
LA AND SAN BERNARDINO COUNTY MOUNTAINS


CITY           SKY/WX    TMP DP  RH WIND       PRES   REMARKS
*ACTON           N/A     81  55  40 S6          N/A
*BIG BEAR AIRP CLEAR     64  43  45 E10       30.13F
*BIG PINES       N/A     67  45  44 NW2         N/A
MT WILSON NWS    N/A     68  57  68 MISG        N/A
SANDBERG       MOSUNNY   77  50  38 W5        30.02F

$$

CAZ028-029-059-060-099-192100-
ANTELOPE VALLEY AND SURROUNDING AREAS


CITY           SKY/WX    TMP DP  RH WIND       PRES   REMARKS
LANCASTER      SUNNY     82  45  27 E3        29.90F
PALMDALE       SUNNY     83  43  24 MISG      29.91F
*POPPY PARK      N/A     86  47  25 SW6         N/A

CITY           SKY/WX    TMP DP  RH WIND       PRES   REMARKS
29 PALMS       SUNNY     87  48  25 CALM      29.93F
BARSTOW/DAGGET SUNNY     85  48  27 NW7       29.88F
BISHOP         SUNNY     83  40  21 VRB5      29.98F
CHINA LAKE     SUNNY     87  45  23 E16G24    29.88F
EDWARDS AFB    MOSUNNY   81  46  29 VRB6      29.89F
MOJAVE         FAIR      81  45  28 E13       29.92F
NEEDLES        SUNNY     99  46  16 SW14      29.79F HX  95
VICTORVILLE    SUNNY     81  43  26 CALM      29.93F

$$

CAZ039-040-192100-
VENTURA AND SANTA BARBARA COUNTY COAST


CITY           SKY/WX    TMP DP  RH WIND       PRES   REMARKS
CAMARILLO      MOSUNNY   80  61  52 S10       29.88F
NWS OXNARD       N/A     76  60  57 S9        29.88S
OXNARD AIRPORT MOSUNNY   75  60  59 SW8       29.89S
*POINT MUGU    MOSUNNY   79  63  57 SW8       29.89F
SBA APT/GOLETA CLOUDY    73  61  65 SW8       29.90S
*SANTA BARBARA   N/A     77  60  55 CALM      29.96F
*VENTURA         N/A     78  62  57 SW6       29.93S

$$

CAZ044-045-192100-
VENTURA COUNTY VALLEYS


CITY           SKY/WX    TMP DP  RH WIND       PRES   REMARKS
*SIMI VALLEY     N/A     80  61  53 E3        29.82F
*OJAI            N/A     82  63  52 W5        29.80F

$$

CAZ053-192100-
VENTURA COUNTY MOUNTAINS


CITY           SKY/WX    TMP DP  RH WIND       PRES   REMARKS
*LOCKWOOD VLY    N/A     72  41  33 MISG        N/A
*ROSE VALLEY     N/A     79  61  53 MISG        N/A

$$

CAZ034-035-036-192100-
CENTRAL COAST AND SANTA YNEZ VALLEY


CITY           SKY/WX    TMP DP  RH WIND       PRES   REMARKS
SAN LUIS OBISP SUNNY     79  60  52 NW14      29.87F
SANTA MARIA    SUNNY     78  60  53 NW10      29.88F

CITY           SKY/WX    TMP DP  RH WIND       PRES   REMARKS
*CAL POLY SLO    N/A     79  63  57 W5          N/A
*LOMPOC        SUNNY     75  59  57 W15       29.90S
*PISMO BEACH     N/A     68  63  84 SW10      29.90S
*SANTA YNEZ    FAIR      79  59  50 SW10G17   29.88F

$$

CAZ037-038-051-192100-
SAN LUIS OBISPO COUNTY INTERIOR AND CUYAMA VALLEY


CITY           SKY/WX    TMP DP  RH WIND       PRES   REMARKS
*CUYAMA          N/A     78  55  44 E7        29.81F
PASO ROBLES    SUNNY     78  57  48 NW3       29.88F

$$

CAZ032-033-061-192100-
SOUTHERN DESERTS


CITY           SKY/WX    TMP DP  RH WIND       PRES   REMARKS
BLYTHE         SUNNY     94  55  26 VRB5      29.78F HX  92
IMPERIAL       SUNNY     94  53  25 SW7       29.75F HX  91
PALM SPRINGS   SUNNY     94  53  25 NW8       29.79F HX  91
THERMAL        SUNNY     96  52  22 VRB3      29.73F HX  93

$$

ELSEWHERE ACROSS THE WESTERN UNITED STATES AND MEXICO


CITY           SKY/WX    TMP DP  RH WIND       PRES   REMARKS
DENVER, CO     MOSUNNY   86  42  21 VRB3      30.00F
GRAND CANYON,  MOSUNNY   77  52  41 W9        30.16F
HONOLULU, HI   MOSUNNY   82  70  65 S3        29.95S
KAHULUI, MAUI  MOSUNNY   84  72  65 N8        29.95F
LAKE TAHOE, CA SUNNY     72  37  28 E12G22    30.13F
LAS VEGAS, NV  MOSUNNY   91  45  20 SW3       29.83F
MAMMOTH LAKES, FAIR      72  34  25 SE13G18   30.16F
MEXICO CITY, M PTSUNNY   77  48  36 NE9       30.21F
PHOENIX, AZ    MOSUNNY   94  66  39 SW7       29.80F HX  97
PORTLAND, OR   MOSUNNY   75  55  49 W6        30.08F
RENO, NV       MOSUNNY   77  42  28 W8        30.07F
SALT LAKE CITY MOSUNNY   79  51  37 NW9       30.04F
SAN DIEGO, CA  MOSUNNY   77  61  57 NW12      29.89F
SAN FRANCISCO, MOSUNNY   72  63  73 NW16      29.89F
SAN JOSE, CA   MOSUNNY   75  59  57 NW7       29.88F
SEATTLE, WA    PTSUNNY   69  55  60 SW8       30.12S
TIJUANA, MEX   SUNNY     77  61  57 NW5       29.90

$$

STATION/POSITION TIME  TEMP    WIND        PRES    VSBY  WAVE
                       AIR SEA DIR/SP/G                  HT/PER
                 (UTC) (F)     (DEG/KT/KT) (MB)    (MI)  (FT/S)
POINT ARGUELLO B NOT AVBL
WEST SANTA BARBA 2000   63 61  300/  4/  6 1012.1F         5/11
POINT CONCEPTION NOT AVBL
EAST SANTA BARBA 2000   66 66  270/  4/  4 1012.7F
SANTA MONICA BAY 2000   69 72  160/  8/ 10 1011.8F         4/15



USA.gov is the U.S. government's official web portal to all federal, state and local government web resources and services.